Probability
0 0 0 0 0 0 0 0 0 0 0 0 0 0 0 0 0 0 0 0 0 0 0 0 0 0 0 0 0 0 0 0 0 0 0 0 0 0 0 0 0 0 0 0
0 0 0 0 0 0 0 0 0 0 0 0 0 0 0 0 0 0 0 0 0 0 0 0 0 0 0 0 0 0 0 0 0 0 0 0 0 0 0 0 0 0 0 0
0 0 0 0 0 0 0 0 0 0 0 0 0 0 0 0 0 0 0 0 0 0 0 0 0 0 0 0 0 0 0 0 0 0 0 0 0 0 0 0 0 0 0 0
0 0 0 0 0 0 0 0 0 0 0 0 0 0 0 0 0 0 0 0 0 0 0 0 0 0 0 0 0 0 0 0 0 0 0 0 0 0 0 0 0 0 0 0
0 0 0 0 0 0 0 0 0 0 0 0 0 0 0 0 0 0 0 0 0 0 0 0 0 0 0 0 0 0 0 0 0 0 0 0 0 0 0 0 0 0 0 0
0 0 0 0 0 0 0 0 0 0 0 0 0 0 0 0 0 0 0 0 0 0 0 0 0 0 0 0 0 0 0 0 0 0 0 0 0 0 0 0 0 0 0 0
0 0 0 0 0 0 0 0 0 0 0 0 0 0 0 0 0 0 0 0 0 0 0 0 0 0 0 0 0 0 0 0 0 0 0 0 0 0 0 0 0 0 0 0
0 0 0 0 0 0 0 0 0 0 0 0 0 0 0 0 0 0 0 0 0 0 0 0 0 0 0 0 0 0 0 0 0 0 0 0 0 0 0 0 0 0 0 0
0 0 0 0 0 0 0 0 0 0 0 0 0 0 0 0 0 0 0 0 0 0 0 0 0 0 0 0 0 0 0 0 0 0 0 0 0 0 0 0 0 0 0 0
0 0 0 0 0 0 0 0 0 0 0 0 0 0 0 0 0 0 0 0 0 0 0 0 0 0 0 0 0 0 0 0 0 0 0 0 0 0 0 0 0 0 0 0
0 0 0 0 0 0 0 0 0 0 0 0 0 0 0 0 0 0 0 0 0 0 0 0 0 0 0 0 0 0 0 0 0 0 0 0 0 0 0 0 0 0 0 0
0 0 0 0 0 0 0 0 0 0 0 0 0 0 0 0 0 0 0 0 0 0 0 0 0 0 0 0 0 0 0 0 0 0 0 0 0 0 0 0 0 0 0 0
0 0 0 0 0 0 0 0 0 0 0 0 0 0 0 0 0 0 0 0 0 0 0 0 0 0 0 0 0 0 0 0 0 0 0 0 0 0 0 0 0 0 0 0
0 0 0 0 0 0 0 0 0 0 0 0 0 0 0 0 0 0 0 0 0 0 0 0 0 0 0 0 0 0 0 0 0 0 0 0 0 0 0 0 0 0 0 0
0 0 0 0 0 0 0 0 0 0 0 0 0 0 0 0 0 0 0 0 0 0 0 0 0 0 0 0 0 0 0 0 0 0 0 0 0 0 0 0 0 0 0 0
0 0 0 0 0 0 0 0 0 0 0 0 0 0 0 0 0 0 0 0 0 0 0 0 0 0 0 0 0 0 0 0 0 0 0 0 0 0 0 0 0 0 0 0
0 0 0 0 0 0 0 0 0 0 0 0 0 0 0 0 0 0 0 0 0 0 0 0 0 0 0 0 0 0 0 0 0 0 0 0 0 0 0 0 0 0 0 0
0 0 0 0 0 0 0 0 0 0 0 0 0 0 0 0 0 0 0 0 0 0 0 0 0 0 0 0 0 0 0 0 0 0 0 0 0 0 0 0 0 0 0 0
0 0 0 0 0 0 0 0 0 0 0 0 0 0 0 0 0 0 0 0 0 0 0 0 0 0 0 0 0 0 0 0 0 0 0 0 0 0 0 0 0 0 0 0
0 0 0 0 0 0 0 0 0 0 0 0 0 0 0 0 0 0 0 0 0 0 0 0 0 0 0 0 0 0 0 0 0 0 0 0 0 0 0 0 0 0 0 0
0 0 0 0 0 0 0 0 0 0 0 0 0 0 0 0 0 0 0 0 0 0 0 0 0 0 0 0 0 0 0 0 0 0 0 0 0 0 0 0 0 0 0 0
0 0 0 0 0 0 0 0 0 0 0 0 0 0 0 0 0 0 0 0 0 0 0 0 0 0 0 0 0 0 0 0 0 0 0 0 0 0 0 0 0 0 0 0
0 0 0 0 0 0 0 0 0 0 0 0 0 0 0 0 0 0 0 0 0 0 0 0 0 0 0 0 0 0 0 0 0 0 0 0 0 0 0 0 0 0 0 0
0 0 0 0 0 0 0 0 0 0 0 0 0 0 0 0 0 0 0 0 0 0 0 0 0 0 0 0 0 0 0 0 0 0 0 0 0 0 0 0 0 0 0 0
0 0 0 0 0 0 0 0 0 0 0 0 0 0 0 0 0 0 0 0 0 0 0 0 0 0 0 0 0 0 0 0 0 0 0 0 0 0 0 0 0 0 0 0
0 0 0 0 0 0 0 0 0 0 0 0 0 0 0 0 0 0 0 0 0 0 0 0 0 0 0 0 0 0 0 0 0 0 0 0 0 0 0 0 0 0 0 0
Height
5884 5883 5881 5879 5876 5875 5873 5872 5869 5866 5863 5861 5857 5852 5847 5840 5832 5824 5815 5805 5793 5780 5768 5755 5742 5728 5715 5702 5688 5675 5664 5653 5645 5636 5626 5616 5607 5598 5590 5583 5577 5573 5570 5568
5884 5882 5879 5877 5875 5874 5872 5870 5867 5865 5861 5857 5851 5847 5840 5833 5825 5816 5806 5794 5781 5768 5755 5742 5729 5716 5702 5687 5672 5659 5648 5638 5629 5620 5610 5601 5595 5587 5579 5571 5565 5559 5553 5549
5882 5880 5877 5876 5875 5873 5870 5867 5863 5860 5857 5852 5845 5841 5835 5826 5817 5807 5796 5784 5771 5758 5744 5730 5715 5700 5685 5669 5653 5642 5633 5624 5616 5606 5597 5588 5581 5573 5566 5558 5550 5544 5536 5530
5880 5878 5876 5875 5872 5869 5866 5863 5860 5856 5853 5847 5841 5833 5827 5817 5808 5798 5787 5773 5758 5743 5728 5715 5700 5686 5669 5652 5638 5628 5620 5612 5603 5593 5583 5574 5565 5558 5551 5544 5536 5529 5522 5514
5879 5877 5875 5872 5869 5866 5863 5860 5857 5852 5847 5842 5835 5826 5820 5810 5800 5789 5775 5760 5744 5730 5717 5702 5686 5669 5651 5636 5625 5617 5608 5599 5588 5577 5567 5557 5547 5539 5533 5527 5521 5514 5507 5500
5877 5875 5872 5869 5867 5864 5860 5856 5852 5847 5842 5836 5828 5821 5812 5804 5792 5778 5763 5747 5733 5718 5703 5688 5671 5653 5637 5624 5615 5605 5595 5584 5573 5561 5550 5539 5530 5521 5514 5509 5503 5498 5493 5487
5875 5872 5869 5866 5863 5860 5857 5853 5848 5842 5835 5830 5823 5814 5806 5793 5779 5766 5752 5737 5721 5705 5690 5673 5654 5638 5626 5616 5605 5595 5582 5570 5558 5545 5533 5522 5513 5504 5497 5491 5486 5482 5478 5474
5872 5870 5867 5863 5861 5857 5854 5851 5846 5839 5831 5824 5816 5806 5796 5782 5768 5755 5741 5725 5709 5693 5676 5658 5640 5628 5618 5607 5594 5582 5568 5554 5542 5530 5518 5507 5498 5490 5482 5475 5470 5465 5462 5460
5871 5868 5865 5861 5857 5854 5850 5845 5840 5833 5824 5815 5808 5799 5786 5772 5759 5745 5730 5714 5698 5681 5663 5647 5632 5620 5607 5594 5580 5568 5554 5540 5528 5518 5508 5498 5488 5479 5471 5463 5456 5451 5447 5444
5868 5866 5863 5859 5855 5851 5847 5841 5835 5828 5819 5810 5801 5789 5776 5763 5748 5734 5720 5704 5687 5669 5652 5638 5623 5610 5595 5580 5567 5554 5542 5531 5520 5509 5499 5490 5480 5470 5461 5453 5445 5438 5433 5429
5866 5864 5860 5856 5852 5848 5843 5836 5829 5822 5814 5803 5791 5784 5769 5754 5739 5725 5710 5693 5675 5658 5643 5628 5613 5599 5585 5570 5557 5545 5534 5524 5514 5503 5492 5482 5471 5461 5451 5442 5433 5426 5419 5414
5863 5861 5857 5854 5850 5844 5839 5832 5825 5817 5807 5797 5786 5776 5760 5746 5731 5716 5700 5682 5664 5650 5635 5620 5605 5590 5576 5563 5551 5539 5528 5518 5507 5495 5484 5473 5462 5451 5440 5430 5421 5413 5406 5400
5861 5858 5854 5850 5847 5841 5834 5827 5819 5811 5802 5791 5778 5769 5752 5738 5722 5707 5691 5674 5658 5643 5628 5613 5597 5582 5569 5557 5545 5534 5523 5511 5499 5487 5475 5463 5451 5439 5428 5417 5408 5400 5393 5386
5859 5855 5851 5846 5841 5835 5829 5823 5815 5807 5797 5785 5772 5760 5744 5729 5714 5700 5683 5666 5651 5635 5620 5605 5590 5576 5563 5551 5540 5529 5517 5505 5492 5478 5466 5453 5440 5428 5417 5405 5395 5386 5379 5372
5856 5852 5847 5843 5838 5832 5826 5819 5811 5801 5791 5779 5766 5753 5738 5721 5707 5691 5675 5659 5643 5628 5614 5598 5583 5570 5558 5546 5535 5523 5511 5498 5484 5470 5457 5444 5432 5420 5407 5396 5385 5375 5367 5361
5852 5848 5844 5840 5834 5829 5822 5814 5805 5796 5784 5772 5759 5746 5730 5715 5700 5684 5668 5652 5637 5622 5607 5592 5578 5566 5553 5541 5530 5518 5505 5491 5477 5463 5449 5437 5425 5412 5400 5388 5377 5367 5359 5352
5847 5843 5839 5835 5829 5823 5815 5807 5799 5790 5778 5766 5752 5739 5723 5709 5693 5679 5662 5646 5631 5616 5601 5587 5574 5561 5548 5536 5524 5512 5498 5484 5470 5456 5443 5431 5418 5406 5394 5382 5371 5360 5351 5343
5844 5838 5833 5829 5823 5817 5813 5802 5792 5783 5772 5758 5745 5731 5715 5701 5687 5672 5656 5640 5625 5610 5595 5581 5569 5557 5544 5532 5519 5506 5493 5478 5464 5449 5437 5425 5412 5399 5387 5375 5363 5353 5342 5333
5840 5834 5828 5822 5816 5812 5805 5795 5785 5776 5766 5753 5739 5724 5709 5695 5680 5666 5649 5633 5620 5604 5590 5578 5565 5553 5540 5527 5515 5502 5488 5473 5459 5444 5433 5420 5407 5394 5380 5368 5355 5343 5331 5321
5836 5830 5825 5818 5811 5805 5799 5789 5779 5770 5758 5746 5732 5719 5705 5689 5676 5660 5643 5628 5614 5598 5586 5575 5562 5549 5537 5523 5510 5497 5484 5469 5454 5440 5428 5414 5401 5387 5374 5359 5346 5331 5316 5305
5831 5825 5819 5813 5806 5799 5791 5782 5773 5764 5755 5740 5727 5713 5698 5684 5670 5653 5637 5622 5608 5594 5581 5569 5558 5546 5534 5521 5507 5494 5480 5465 5450 5437 5423 5410 5396 5382 5368 5352 5335 5317 5301 5291
5825 5819 5814 5807 5799 5794 5785 5777 5769 5760 5746 5734 5721 5706 5692 5678 5662 5647 5632 5618 5603 5590 5579 5567 5555 5544 5532 5519 5505 5492 5477 5462 5448 5434 5421 5407 5393 5379 5363 5346 5326 5306 5289 5282
5821 5816 5810 5805 5799 5789 5781 5774 5764 5753 5741 5728 5715 5700 5687 5673 5658 5642 5628 5614 5600 5588 5577 5565 5553 5541 5529 5517 5504 5490 5476 5461 5447 5433 5419 5405 5390 5375 5359 5341 5321 5301 5286 5277
5815 5810 5805 5799 5792 5784 5776 5767 5757 5747 5736 5723 5709 5696 5683 5669 5654 5638 5624 5610 5597 5586 5575 5564 5552 5539 5528 5516 5503 5489 5475 5461 5447 5433 5419 5404 5389 5374 5356 5338 5319 5299 5285 5276
5809 5804 5799 5794 5787 5779 5771 5762 5753 5742 5731 5718 5705 5693 5679 5666 5650 5635 5622 5609 5595 5584 5574 5563 5551 5538 5527 5515 5503 5489 5475 5462 5448 5433 5420 5405 5390 5374 5357 5338 5320 5301 5284 5273
5804 5800 5794 5788 5782 5774 5766 5757 5747 5737 5726 5713 5701 5689 5675 5661 5646 5632 5620 5607 5594 5584 5574 5563 5551 5539 5527 5516 5503 5489 5476 5462 5449 5436 5422 5408 5393 5379 5363 5345 5325 5305 5288 5274
Wind_Speed
5 7 8 9 9 11 13 15 15 16 20 23 27 30 34 39 43 47 53 59 64 70 74 76 78 80 82 82 83 79 71 60 58 60 59 57 49 45 43 44 47 48 52 60
7 9 11 13 14 14 16 18 18 20 23 27 32 34 38 42 47 53 58 63 69 74 75 76 78 82 84 83 79 70 58 55 57 56 55 51 45 43 43 43 45 47 49 51
7 9 12 13 13 14 17 20 22 25 28 31 36 38 42 47 51 57 62 68 72 75 77 78 79 82 81 77 70 58 52 54 57 58 58 55 51 49 48 46 45 46 47 49
9 11 13 14 15 17 20 23 26 28 30 32 37 44 44 49 54 60 65 70 73 75 76 79 81 81 77 74 63 53 53 57 61 63 63 61 57 56 55 52 48 45 45 47
11 12 14 16 18 20 23 26 28 30 31 35 40 44 48 53 59 65 70 73 76 79 79 82 80 77 73 67 56 52 56 61 65 67 66 64 60 60 61 58 52 46 44 44
12 13 15 17 19 22 24 26 29 32 35 39 43 48 53 58 65 70 73 76 78 80 82 81 77 71 65 58 53 55 60 65 67 68 66 62 58 56 57 56 52 46 42 40
15 15 17 17 19 21 23 27 32 36 41 43 46 51 56 63 68 72 76 77 79 82 82 77 71 64 58 55 56 61 65 67 67 66 64 61 56 53 52 51 50 47 42 38
17 17 17 17 19 21 23 27 32 37 42 46 49 55 59 66 71 75 77 78 80 82 78 73 65 59 57 58 62 65 66 66 64 59 56 53 50 49 48 47 47 45 43 40
17 18 18 18 19 22 26 30 33 39 45 51 54 57 63 69 74 75 75 77 80 80 74 66 61 61 62 65 66 65 63 59 55 51 49 49 48 46 45 44 44 42 41 40
17 18 18 19 20 23 27 32 36 41 47 52 57 62 69 74 76 75 75 78 83 77 68 62 62 65 67 67 64 61 56 52 50 50 50 49 48 46 44 44 44 43 41 39
18 18 20 21 23 27 30 33 37 43 47 53 61 65 71 76 77 75 77 79 79 71 64 63 66 68 68 65 61 55 52 49 48 48 48 48 50 50 48 47 46 45 44 41
18 19 22 23 25 27 30 35 41 46 50 55 63 67 74 76 75 76 77 77 72 66 64 66 68 68 64 59 55 52 49 49 51 51 50 50 51 52 52 50 48 45 44 43
20 22 24 24 26 29 33 39 44 48 51 58 65 68 75 75 74 75 76 75 71 66 66 69 69 65 59 54 52 49 49 52 55 55 54 54 54 54 52 49 47 45 43 41
23 24 25 27 29 31 37 41 45 49 54 60 66 70 74 74 73 75 75 74 69 64 67 69 66 60 55 52 51 50 52 55 58 57 56 56 53 51 50 48 46 44 42 38
25 24 24 26 28 32 38 42 46 51 55 61 68 72 74 74 74 76 76 72 66 65 68 68 62 55 52 51 51 52 54 58 59 57 57 53 50 51 51 48 45 41 38 35
27 27 26 27 30 33 38 43 48 52 56 63 70 74 74 73 74 75 73 69 65 66 68 64 56 52 50 51 52 54 56 59 58 58 55 51 53 53 53 50 46 42 38 34
28 29 30 31 34 37 41 45 49 53 58 66 72 74 75 72 73 73 71 67 64 67 66 58 52 50 50 52 53 55 58 60 60 58 53 54 56 56 55 52 49 47 43 37
29 31 33 35 37 39 43 46 51 55 61 67 72 76 73 71 72 71 67 63 64 67 61 54 50 50 52 54 54 56 61 61 61 56 53 57 57 56 56 53 51 51 50 42
29 32 35 37 39 41 44 48 53 57 62 68 73 75 72 71 71 69 65 63 64 63 57 52 51 52 54 55 55 57 62 63 61 55 55 58 57 55 55 54 54 56 54 44
29 32 35 37 40 44 46 49 53 59 64 69 73 73 70 71 70 67 64 63 64 59 53 51 52 54 55 55 56 59 63 63 60 54 57 59 58 57 58 58 60 61 55 41
31 33 36 38 41 43 46 50 54 59 66 70 71 70 69 69 68 65 63 63 62 55 51 52 53 55 56 55 56 59 62 62 58 56 58 60 59 60 61 62 66 64 50 34
33 35 38 40 44 46 47 51 54 59 65 68 69 68 67 68 67 63 62 62 59 52 50 51 53 55 56 55 56 59 61 61 58 57 57 59 60 62 63 65 68 63 43 29
33 35 38 40 42 44 46 50 54 59 63 66 67 66 66 67 66 62 61 61 56 50 49 51 53 55 56 55 56 59 60 59 58 56 56 58 61 63 66 68 70 62 43 30
35 37 38 39 41 43 46 50 54 57 61 65 66 65 65 67 64 61 60 59 53 48 48 50 52 54 54 54 56 59 59 58 57 56 56 58 61 62 66 70 72 65 46 33
38 38 38 38 40 42 44 50 54 55 60 65 65 64 65 66 63 60 59 57 51 47 47 49 51 52 53 53 55 57 58 57 57 56 56 58 60 62 65 69 72 69 53 39
40 38 38 38 39 41 45 50 53 55 60 64 65 63 64 64 61 59 58 55 49 45 46 48 51 51 51 52 54 57 57 58 57 56 56 59 60 60 62 66 70 70 62 45
Wind_Direction
299 314 329 329 327 329 332 332 330 321 320 319 319 323 325 323 320 318 317 318 317 318 318 319 319 319 318 317 315 312 307 307 311 311 310 307 303 299 296 294 293 288 281 270
301 317 324 323 324 326 327 323 319 318 319 322 322 324 324 322 321 322 322 321 320 319 319 320 320 319 319 317 313 308 306 311 314 315 314 307 302 299 297 296 294 293 289 283
320 328 331 328 322 320 321 321 321 321 322 324 322 323 325 323 324 324 324 321 320 320 321 321 320 320 320 315 309 305 307 312 315 316 314 305 299 300 302 301 300 297 294 291
327 329 327 325 325 326 327 326 323 322 324 326 323 325 327 326 326 325 324 324 324 323 323 322 323 323 319 313 309 307 313 313 313 314 311 305 296 290 293 296 297 297 296 293
325 324 324 325 328 328 326 325 323 324 325 325 327 326 328 328 327 326 328 328 326 326 325 325 326 323 318 314 312 311 314 314 313 314 311 308 301 293 289 291 294 296 295 296
337 330 324 323 324 324 327 327 327 325 326 330 328 327 328 328 328 330 330 329 328 327 327 328 327 323 319 318 318 316 316 316 315 315 314 310 306 300 295 292 292 292 293 293
347 340 332 327 328 328 330 331 328 329 331 330 328 328 330 329 331 332 332 330 329 329 331 330 327 323 322 322 321 318 318 317 316 315 312 309 306 303 300 296 293 290 289 288
346 340 335 333 331 330 332 331 332 333 330 328 331 333 332 332 334 334 333 332 331 333 333 330 327 325 324 323 322 321 321 319 318 317 317 317 316 312 309 303 297 292 287 283
344 339 338 334 330 332 334 334 334 333 332 334 335 334 334 336 336 336 335 334 334 336 333 330 327 325 326 325 325 324 323 324 326 328 327 325 323 320 316 312 308 302 292 283
343 339 336 331 330 332 334 336 337 338 338 337 337 338 338 339 337 336 336 336 337 336 333 330 328 328 329 328 328 329 330 333 334 333 331 329 326 323 320 316 311 306 301 290
343 340 335 335 333 334 336 338 337 337 339 340 338 339 339 339 337 337 338 339 338 335 334 331 331 331 331 331 332 335 337 338 338 335 332 330 327 324 320 316 313 308 303 296
344 341 337 336 333 333 337 337 336 339 340 339 338 339 338 339 338 339 340 340 337 336 334 333 333 333 334 336 337 339 341 341 339 337 333 330 327 324 321 317 314 311 303 296
347 343 337 336 336 337 336 336 335 336 337 338 340 340 339 340 340 341 341 339 338 338 336 335 335 336 338 340 341 343 342 341 340 338 335 332 329 326 323 319 314 312 309 299
346 343 339 337 337 335 334 334 335 337 337 339 340 340 341 341 342 342 341 340 340 339 337 337 337 340 342 343 345 344 343 341 339 338 337 335 335 334 332 328 321 315 313 308
342 342 340 335 334 332 331 333 336 338 338 339 340 341 341 342 343 343 342 342 341 340 338 339 341 345 346 346 346 344 342 341 342 341 340 341 343 343 341 338 333 326 320 314
338 338 337 334 332 332 333 335 338 339 339 340 340 341 341 342 343 343 342 343 342 340 340 342 345 347 348 347 345 344 343 343 344 344 344 345 345 346 345 343 341 336 328 321
334 334 334 335 335 337 338 338 338 340 340 340 341 341 342 343 344 343 343 344 341 341 343 345 348 348 347 346 345 346 346 345 346 346 347 347 346 346 345 344 342 342 336 325
331 332 333 335 336 341 338 337 338 341 341 340 341 341 343 344 343 343 344 344 342 343 345 348 349 348 348 347 347 347 348 347 347 347 348 348 347 347 346 345 343 341 339 331
328 331 333 335 337 338 338 340 340 342 341 341 341 342 343 344 343 344 345 344 343 345 347 350 350 350 349 348 348 348 348 348 348 349 349 350 350 349 348 346 343 339 336 329
328 330 332 334 334 337 339 339 340 341 341 342 342 343 343 344 345 346 347 345 345 347 350 351 350 350 351 350 349 349 349 350 350 350 350 351 350 350 350 348 344 341 336 326
327 329 333 334 334 336 337 338 339 340 341 341 342 343 344 345 345 347 348 346 346 350 352 351 351 351 352 351 351 350 351 352 353 352 351 351 352 352 351 349 347 344 339 328
325 329 334 337 337 336 337 336 337 338 340 341 342 343 345 347 346 348 349 347 348 353 353 352 352 352 352 352 353 352 353 354 355 354 353 354 356 356 354 353 353 351 347 337
321 326 332 335 333 333 335 335 337 338 340 341 342 343 347 348 348 350 349 348 350 354 354 353 354 353 354 354 355 355 356 357 357 357 357 358 359 359 359 359 359 360 357 349
317 324 329 332 331 333 335 336 338 339 340 341 342 345 348 348 349 351 351 350 353 356 355 355 356 356 355 356 358 358 360 360 1 1 1 0 0 1 2 4 4 5 3 359
314 321 326 329 328 331 334 335 337 338 340 342 343 346 348 349 350 352 352 353 355 356 357 358 358 358 358 359 0 1 3 3 4 4 4 4 3 4 6 7 8 9 8 2
311 316 320 324 325 328 332 334 335 337 338 342 344 346 348 349 352 353 353 355 357 358 358 359 360 360 360 1 2 3 6 6 8 7 8 8 8 9 11 12 13 13 14 10